MyTimes logo

TIMES

Webb Imagery

16/02/2014
Phillip Island Swim Classic
2.0km

(Click on competitor name to view personalised results)

Name
Race #
Category
Time
(h:mm:ss)
Avg Speed
km/hr
OAll
Place
Cat
Place
ASBURY Shane#611Open Male0:26:19"13:10 " 11
OSBORNE Stephen#428Veteran Male0:30:01"15:00 " 21
WILDES Adam#406Junior Male0:30:01"15:00 " 31
WILSON Glenn#648Senior Male0:30:08"15:04 " 41
POWELL Mark#438Veteran Male0:30:08"15:04 " 52
FYFIELD Sally#516Open Female0:31:02"15:31 " 61
COOTE Jackson#629Open Male0:31:16"15:38 " 72
NORMAN Jeff#436Veteran Male0:31:28"15:44 " 83
GROVES Tamara#509Open Female0:31:29"15:44 " 92
BAILLIE Mal#430Veteran Male0:31:41"15:50 " 104
CHAPLIN Greg#405Veteran Male0:31:46"15:53 " 115
CROZIER Andrew#651Open Male0:31:48"15:54 " 123
HARVEY Peta#417Veteran Female0:31:55"15:57 " 131
PETERSON Sam#457Junior Male0:32:49"16:25 " 142
HAZEL Phil#602Mature Male0:32:50"16:25 " 151
ARMSTRONG Trevor#413Super Veteran Male0:32:50"16:25 " 161
HIATT Walter#456Junior Male0:32:57"16:29 " 173
FORD Courtney#530Senior Female0:33:15"16:37 " 181
SMITH Ryan#646Open Male0:33:21"16:41 " 194
ANERSON David#616Mature Male0:33:23"16:42 " 202
DORE Brett#630Open Male0:33:47"16:54 " 215
COOK James#411Veteran Male0:33:49"16:55 " 226
FLEISNER Rob#644Veteran Male0:33:51"16:55 " 237
BOND Marcus#621Senior Male0:33:53"16:57 " 242
HOUWEN Peter#425Veteran Male0:34:19"17:09 " 258
BASS Cooper#412Junior Male0:34:21"17:10 " 264
FISHER Surrey#453Junior Male0:34:26"17:13 " 275
SCOTT Thomas#647Mature Male0:34:27"17:13 " 283
JOHNSON Fran#459Veteran Female0:34:36"17:18 " 292
SCREEN Alex#622Mature Male0:34:43"17:22 " 304
PLANT Luke#620Open Male0:35:13"17:36 " 316
LIDSTONE Blair#627Senior Male0:35:17"17:39 " 323
DUYVESTYN Con#408Super Veteran Male0:35:20"17:40 " 332
MAGANN Jarrod#640Open Male0:35:36"17:48 " 347
HARWOOD Michael#404Veteran Male0:35:36"17:48 " 359
CAMERON Dion#638Mature Male0:35:38"17:49 " 365
KELLAM David#612Senior Male0:35:39"17:49 " 374
TRAVERS Graham#424Super Veteran Male0:35:43"17:51 " 383
IANSEK Ian#645Open Male0:36:00"18:00 " 398
WHITE Cameron#610Senior Male0:36:04"18:02 " 405
HARRY Kevin#613Open Male0:36:16"18:08 " 419
VAN LEEUWEN Tim#407Veteran Male0:36:43"18:22 " 4210
RIED Karin#505Mature Female0:37:03"18:32 " 431
SORENSON Michael#437Veteran Male0:37:04"18:32 " 4411
PHILLIPS Ian#463Veteran Male0:37:12"18:36 " 4512
BARBARO Peter#650Mature Male0:37:17"18:39 " 466
ASBURY Samantha#503Open Female0:37:32"18:46 " 473
SUNDERLAND Andrew#649Senior Male0:37:39"18:49 " 486
GUPPY Joshua#642Open Male0:37:42"18:51 " 4910
MAHON Kelsey#522Open Female0:37:42"18:51 " 504
FISHER Kev#452Veteran Male0:37:52"18:56 " 5113
BEVERIDGE Samuel#641Open Male0:37:54"18:57 " 5211
CHILDS Craig#614Mature Male0:37:55"18:58 " 537
HARRISON Adam#623Mature Male0:38:04"19:02 " 548
O'CONNELL Arna#514Mature Female0:38:04"19:02 " 552
OLSEN Andrea#542Mature Female0:38:16"19:08 " 563
ELLUL Jacqueline#502Open Female0:38:27"19:13 " 575
PHILALAY Alex#603Open Male0:38:33"19:16 " 5812
PEARCE Ian#446Super Veteran Male0:38:36"19:18 " 594
SHEPHERD Miranda#442Junior Female0:38:39"19:19 " 601
LAWSQ Christina#513Senior Female0:39:06"19:33 " 612
BILLINGTON Naomi#535Mature Female0:39:06"19:33 " 624
RITTER Sue#508Mature Female0:39:30"19:45 " 635
BENDTSEN Katrina#504Open Female0:39:34"19:47 " 646
DRENNEN Amanda#527Open Female0:39:49"19:55 " 657
CHADWICK Kim#520Mature Female0:39:55"19:58 " 666
SMITH Jeff#449Veteran Male0:40:08"20:04 " 6714
O'DONNOHUE Mark#461Veteran Male0:40:13"20:06 " 6815
FYFIELD Paul#422Veteran Male0:40:36"20:18 " 6916
REMFRY William#403Veteran Male0:40:45"20:22 " 7017
HARRIS Kris#634Mature Male0:40:46"20:23 " 719
HARRIS Simon#618Senior Male0:41:01"20:30 " 727
CANN Lara#536Open Female0:41:04"20:32 " 738
MARUM Ellyse#521Open Female0:41:09"20:35 " 749
LLOYD Karen#501Mature Female0:41:17"20:39 " 757
WESTLAKE Emma#506Open Female0:41:17"20:39 " 7610
HARRIS Jaz#510Open Female0:41:21"20:40 " 7711
ROUNTREE Penny#524Senior Female0:41:22"20:41 " 783
DODD Jennifer#431Veteran Female0:41:26"20:43 " 793
MOSSE Peter#441Veteran Male0:41:38"20:49 " 8018
HARBINSON Yvette#541Senior Female0:41:41"20:51 " 814
MACKENZIE John#447Veteran Male0:41:41"20:51 " 8219
ROSS Jacqueline#454Veteran Female0:41:59"21:00 " 834
COX Bill#439Veteran Male0:42:12"21:06 " 8420
MARUM Justine#529Open Female0:42:24"21:12 " 8512
FORD Brian#448Veteran Male0:42:27"21:13 " 8621
CANTA Doina#419Junior Male0:42:32"21:16 " 876
HAMILTON Carl#608Open Male0:42:35"21:18 " 8813
DICK Katie#538Senior Female0:42:43"21:22 " 895
LOUGHLIN Ciaran#633Mature Male0:42:53"21:26 " 9010
CARRAZZO Peter#402Super Veteran Male0:43:12"21:36 " 915
GULIKERS Lisa#458Veteran Female0:43:13"21:36 " 925
BROWN Sean#656Mature Male0:43:20"21:40 " 9311
MAY Richard#655Mature Male0:43:27"21:43 " 9412
MORRISON Kerry#462Veteran Female0:43:28"21:44 " 956
LANGLANDS Jock#440Super Veteran Male0:43:34"21:47 " 966
BEART Mark#619Senior Male0:43:35"21:47 " 978
NEVINS Susan#414Veteran Female0:43:43"21:51 " 987
JAMES Alycia#526Senior Female0:44:23"22:12 " 996
KEAUS Matthew#652Mature Male0:44:28"22:14 " 10013
WILLIAMS Stephen#615Senior Male0:44:31"22:16 " 1019
HANDRECK Brett#653Open Male0:44:38"22:19 " 10214
KLEISSL Sabine#518Senior Female0:44:48"22:24 " 1037
THORN Claire#531Veteran Female0:44:49"22:25 " 1048
SYME Michael#423Veteran Male0:45:04"22:32 " 10522
LLOYD Greg#637Mature Male0:45:22"22:41 " 10614
HADAWAY Emma#519Senior Female0:45:37"22:48 " 1078
ROOMS Metani#515Senior Female0:45:41"22:50 " 1089
GYLES Hugh#654Senior Male0:45:50"22:55 " 10910
MANNING Simon#418Veteran Male0:45:56"22:58 " 11023
KAMINSKI Peter#420Veteran Male0:46:30"23:15 " 11124
HIRSCH Kai#607Mature Male0:46:46"23:23 " 11215
COSTELLO Alice#534Open Female0:46:47"23:24 " 11313
MC CORMACK Austin#532Mature Female0:46:50"23:25 " 1148
HOUWEN Felicity#512Open Female0:46:57"23:28 " 11514
MCKINLAY Judy#517Senior Female0:46:59"23:30 " 11610
HARRISON Narelle#539Senior Female0:47:08"23:34 " 11711
MARSHALL Sarah#533Mature Female0:47:11"23:36 " 1189
DAGARIS Ric#435Veteran Male0:48:11"24:06 " 11925
BELCHER Tony#443Veteran Male0:48:42"24:21 " 12026
STANSFIELD Michael#643Senior Male0:49:03"24:32 " 12111
WEBBER Simone#537Mature Female0:49:17"24:38 " 12210
BORMANN P#631Senior Male0:49:24"24:42 " 12312
HENNING Stuart#605Mature Male0:49:25"24:42 " 12416
BORMANN L#525Senior Female0:49:42"24:51 " 12512
HOLLINS Jenny#523Mature Female0:49:57"24:59 " 12611
DE CARLO Pier#455Veteran Male0:50:02"25:01 " 12727
MIURA Yuta#639Senior Male0:50:22"25:11 " 12813
LAVENDER Peter#426Veteran Male0:50:46"25:23 " 12928
HIBBLE Jenny#401Veteran Female0:50:55"25:27 " 1309
HUGHES Nick#604Mature Male0:51:13"25:37 " 13117
QUINTAL Steele#626Open Male0:51:37"25:48 " 13215
LEWIS Elizabeth#540Mature Female0:52:09"26:04 " 13312
ROBERTSON Debbie#429Veteran Female0:52:11"26:06 " 13410
WILSON Naomi#528Open Female0:52:38"26:19 " 13515
WEBBER Neil#460Veteran Male0:53:04"26:32 " 13629
ILES Matthew#601Senior Male0:53:57"26:58 " 13714
THOMAS Julie#444Super Veteran Female0:57:45"28:52 " 1381
HORDER Andrew#617Mature Male1:03:12"31:36 " 13918